DW5091 Weather Reports


time (UTC)temp
C
wind
direction
speed
KPH
gust
KPH
rain 1hr
cm
rain 24hr
cm
rain mn
cm
humidity
%
barometer
mb
20260508020103 8 129 0.0 1.6 0.00 0.00 0.00 87 1016.2
20260508015603 8 129 0.0 0.0 0.00 0.00 0.00 87 1016.2
20260508014603 8 129 0.0 1.6 0.00 0.00 0.00 87 1016.2
20260508013603 8 129 0.0 1.6 0.00 0.00 0.00 86 1016.2
20260508012603 8 129 0.0 0.0 0.00 0.00 0.00 85 1016.1
20260508011103 9 129 0.0 0.0 0.00 0.00 0.00 85 1016.1
20260508010603 9 129 0.0 0.0 0.00 0.00 0.00 85 1016.2
20260508005604 9 79 0.0 0.0 0.00 0.00 0.00 84 1016.3
20260508005103 9 318 0.0 0.0 0.00 0.00 0.00 84 1016.2
20260508004603 9 318 0.0 0.0 0.00 0.00 0.00 84 1016.2
20260508004103 9 318 0.0 0.0 0.00 0.00 0.00 83 1016.2
20260508003603 9 318 0.0 0.0 0.00 0.00 0.00 83 1016.2
20260508002603 9 314 0.0 0.0 0.00 0.00 0.00 83 1016.3
20260508001604 9 314 0.0 0.0 0.00 0.00 0.00 83 1016.3
20260508001103 9 314 0.0 0.0 0.00 0.00 0.00 82 1016.3
20260507235104 10 124 0.0 1.6 0.00 0.00 0.00 82 1016.4
20260507234603 10 124 0.0 0.0 0.00 0.00 0.00 82 1016.4
20260507233604 10 131 0.0 4.8 0.00 0.00 0.00 82 1016.5
20260507232603 10 105 0.0 4.8 0.00 0.00 0.00 81 1016.5
20260507232105 10 127 0.0 3.2 0.00 0.00 0.00 80 1016.6
20260507231105 10 125 1.6 3.2 0.00 0.00 0.00 80 1016.5
20260507230603 10 124 0.0 4.8 0.00 0.00 0.00 80 1016.5
20260507230104 10 113 1.6 4.8 0.00 0.00 0.00 79 1016.5
20260507225604 10 137 1.6 4.8 0.00 0.00 0.00 78 1016.6
20260507224103 10 117 0.0 3.2 0.00 0.00 0.00 77 1016.7
20260507223103 10 111 1.6 4.8 0.00 0.00 0.00 76 1016.7
20260507222102 10 147 0.0 1.6 0.00 0.00 0.00 76 1016.6
20260507220603 10 125 0.0 1.6 0.00 0.00 0.00 75 1016.7
20260507214103 10 115 0.0 1.6 0.00 0.00 0.00 74 1016.7
20260507213603 10 114 0.0 0.0 0.00 0.00 0.00 74 1016.7
20260507211603 10 114 0.0 0.0 0.00 0.00 0.00 72 1016.7
20260507211103 10 114 0.0 1.6 0.00 0.00 0.00 72 1016.7
20260507205103 11 115 0.0 1.6 0.00 0.00 0.00 70 1016.4
20260507203604 11 115 0.0 1.6 0.00 0.00 0.00 69 1016.3
20260507203103 11 115 0.0 0.0 0.00 0.00 0.00 68 1016.3
20260507202603 11 115 0.0 0.0 0.00 0.00 0.00 67 1016.2
20260507202104 11 115 0.0 0.0 0.00 0.00 0.00 67 1016.1
20260507195103 12 109 0.0 1.6 0.00 0.00 0.00 64 1015.9
20260507194103 12 140 0.0 1.6 0.00 0.00 0.00 64 1015.8
20260507193603 12 128 0.0 1.6 0.00 0.00 0.00 64 1015.8
20260507193103 12 123 0.0 1.6 0.00 0.00 0.00 64 1015.7
20260507192603 12 130 0.0 3.2 0.00 0.00 0.00 64 1015.7
20260507191603 12 119 1.6 3.2 0.00 0.00 0.00 63 1015.7
20260507190603 12 127 1.6 4.8 0.00 0.00 0.00 62 1015.6
20260507185604 12 119 1.6 3.2 0.00 0.00 0.00 61 1015.6
20260507184603 12 123 1.6 3.2 0.00 0.00 0.00 61 1015.6
20260507183104 13 130 1.6 4.8 0.00 0.00 0.00 60 1015.5
20260507181603 13 128 1.6 4.8 0.00 0.00 0.00 61 1015.5
20260507180603 13 129 1.6 4.8 0.00 0.00 0.00 60 1015.5
20260507173603 13 128 1.6 8.0 0.00 0.00 0.00 61 1015.4
20260507172603 13 131 3.2 4.8 0.00 0.00 0.00 62 1015.4
20260507171603 13 134 1.6 4.8 0.00 0.00 0.00 63 1015.4
20260507171103 13 146 0.0 3.2 0.00 0.00 0.00 64 1015.4
20260507170604 13 126 1.6 4.8 0.00 0.00 0.00 63 1015.4
20260507165603 13 123 1.6 4.8 0.00 0.00 0.00 63 1015.4
20260507164103 13 123 0.0 4.8 0.00 0.00 0.00 63 1015.3
20260507162603 13 128 3.2 4.8 0.00 0.00 0.00 63 1015.3
20260507161603 13 122 3.2 4.8 0.00 0.00 0.00 63 1015.4
20260507153103 14 130 1.6 4.8 0.00 0.00 0.00 66 1015.5
20260507152603 14 124 1.6 4.8 0.00 0.00 0.00 66 1015.5
20260507151103 14 123 3.2 4.8 0.00 0.00 0.00 66 1015.6
20260507150603 14 128 1.6 4.8 0.00 0.00 0.00 67 1015.7
20260507145104 13 130 0.0 4.8 0.00 0.00 0.00 62 1015.8
20260507144603 14 131 0.0 3.2 0.00 0.00 0.00 62 1015.8
20260507143103 14 124 1.6 3.2 0.00 0.00 0.00 61 1016.0
20260507141603 14 132 3.2 4.8 0.00 0.00 0.00 60 1016.0
20260507141104 14 128 3.2 11.3 0.00 0.00 0.00 61 1016.0
20260507135604 14 126 3.2 9.7 0.00 0.00 0.00 62 1016.1
20260507134104 14 123 4.8 8.0 0.00 0.00 0.00 63 1016.1
20260507131603 14 127 4.8 14.5 0.00 0.00 0.00 63 1016.2
20260507131103 14 133 3.2 9.7 0.00 0.00 0.00 65 1016.2
20260507123603 13 130 9.7 14.5 0.00 0.00 0.00 62 1016.4
20260507122603 14 136 6.4 12.9 0.00 0.00 0.00 62 1016.4
20260507122103 14 149 4.8 16.1 0.00 0.00 0.00 61 1016.4
20260507121103 14 135 4.8 19.3 0.00 0.00 0.00 63 1016.4
20260507120603 14 133 6.4 12.9 0.00 0.00 0.00 62 1016.3
20260507114603 14 133 3.2 9.7 0.00 0.00 0.00 60 1016.4
20260507113103 15 141 3.2 9.7 0.00 0.00 0.00 58 1016.4
20260507112603 15 118 3.2 11.3 0.00 0.00 0.00 57 1016.3
20260507112103 15 124 3.2 9.7 0.00 0.00 0.00 56 1016.3
20260507110603 15 141 8.0 19.3 0.00 0.00 0.00 54 1016.4
20260507103104 15 117 4.8 9.7 0.00 0.00 0.00 63 1016.5
20260507102604 15 133 3.2 9.7 0.00 0.00 0.00 63 1016.5
20260507101604 13 119 4.8 11.3 0.00 0.00 0.00 68 1016.6
20260507100603 13 125 1.6 8.0 0.00 0.00 0.00 72 1016.7
20260507100103 13 126 3.2 4.8 0.00 0.00 0.00 73 1016.7
20260507095603 13 118 3.2 8.0 0.00 0.00 0.00 75 1016.7
20260507095105 13 143 3.2 8.0 0.00 0.00 0.00 74 1016.6
20260507093104 13 109 4.8 9.7 0.00 0.00 0.00 73 1016.8
20260507092603 13 128 1.6 9.7 0.00 0.00 0.00 73 1016.7
20260507092103 12 149 4.8 8.0 0.00 0.00 0.00 74 1016.7
20260507091605 13 144 3.2 11.3 0.00 0.00 0.00 72 1016.8
20260507084103 12 134 1.6 4.8 0.00 0.00 0.00 79 1016.8
20260507083603 12 133 3.2 8.0 0.00 0.00 0.00 78 1016.8
20260507082103 11 135 1.6 3.2 0.00 0.00 0.00 81 1016.8
20260507081103 10 128 1.6 4.8 0.00 0.00 0.00 83 1016.8
20260507073103 8 121 1.6 4.8 0.00 0.00 0.00 87 1016.7
20260507072603 8 135 1.6 3.2 0.00 0.00 0.00 87 1016.7
20260507072103 8 127 1.6 3.2 0.00 0.00 0.00 88 1016.7
20260507071604 8 139 1.6 3.2 0.00 0.00 0.00 88 1016.7
20260507070603 7 118 1.6 3.2 0.00 0.00 0.00 88 1016.7
20260507065103 7 111 0.0 1.6 0.00 0.00 0.00 90 1016.6
20260507064603 7 77 0.0 1.6 0.00 0.00 0.00 90 1016.6
20260507064103 7 76 0.0 1.6 0.00 0.00 0.00 91 1016.6
20260507063603 7 75 0.0 0.0 0.00 0.00 0.00 91 1016.7
20260507063103 6 75 0.0 1.6 0.00 0.00 0.00 91 1016.6
20260507061103 6 142 1.6 4.8 0.00 0.00 0.00 91 1016.5
20260507053104 6 129 0.0 1.6 0.00 0.00 0.00 90 1016.1
20260507051603 6 112 0.0 1.6 0.00 0.00 0.00 90 1016.1
20260507050103 6 110 0.0 1.6 0.00 0.00 0.00 90 1016.1
20260507045603 6 110 0.0 1.6 0.00 0.00 0.00 90 1016.2
20260507044604 6 110 0.0 1.6 0.00 0.00 0.00 89 1016.0
20260507043604 6 131 0.0 1.6 0.00 0.00 0.00 89 1016.0
20260507042102 6 107 0.0 3.2 0.00 0.00 0.00 89 1016.0
20260507041103 6 117 0.0 1.6 0.00 0.00 0.00 89 1015.9
20260507040103 6 126 0.0 1.6 0.00 0.00 0.00 89 1016.0
20260507035603 6 105 0.0 1.6 0.00 0.00 0.00 89 1016.0
20260507035103 6 106 0.0 1.6 0.00 0.00 0.00 89 1015.9
20260507034602 6 105 0.0 0.0 0.00 0.00 0.00 89 1016.0
20260507033103 6 105 0.0 0.0 0.00 0.00 0.00 89 1016.0
20260507032604 6 105 0.0 0.0 0.00 0.00 0.00 89 1016.0
20260507032103 6 105 0.0 1.6 0.00 0.00 0.00 89 1016.0
20260507031103 6 105 0.0 1.6 0.00 0.00 0.00 89 1016.0
20260507030603 6 105 0.0 1.6 0.00 0.00 0.00 89 1015.9
20260507025603 6 105 0.0 1.6 0.00 0.00 0.00 88 1016.0
20260507023103 6 129 0.0 1.6 0.00 0.00 0.00 88 1015.8
20260507022603 6 120 0.0 3.2 0.00 0.00 0.00 87 1015.8
20260507022103 6 129 0.0 1.6 0.00 0.00 0.00 87 1015.9
20260507021605 6 127 0.0 1.6 0.00 0.00 0.00 87 1015.9